User: anonymous   Login
Location: Le Petit-Vavre
(46.5081°N, 1.5239°E)
Time: 14:37:15
(UTC+00:00)
Language:

PSLV R/B - Orbit

View from above orbital plane
View from above orbital plane
View from above satellite
View from above satellite

Ground track
Ground track

The orbit data is extracted from the following two-line orbital elements,

1 36800U 10035F   21126.87658022  .00000350  00000-0  37831-4 0  9990
2 36800  98.1614 323.4436 0021390 334.5861  25.4304 14.94920627588944
Epoch (UTC): 06 May 2021 21:02:16
Eccentricity: 0.0021390
inclination: 98.1614°
perigee height: 568 km
apogee height: 597 km
right ascension of ascending node: 323.4436°
argument of perigee: 334.5861°
revolutions per day: 14.94920627
mean anomaly at epoch: 25.4304°
orbit number at epoch: 58894

The dashed part of the orbit path shows where the satellite is in the earth's shadow,  

DLR